Stations météo

réclame
Mon MeteoGroup
Kleine Brogel, Belgique (6479): Température de l'air & dewpoint: 11.01.2018 07:00:00 - 17.01.2018 07:00:00 (CET)Kleine Brogel, Belgique (6479): Vitesse du vent & gusts: 11.01.2018 07:00:00 - 17.01.2018 07:00:00 (CET)Kleine Brogel, Belgique (6479): Direction du vent: 11.01.2018 07:00:00 - 17.01.2018 07:00:00 (CET)Kleine Brogel, Belgique (6479): reduced air pressure: 11.01.2018 07:00:00 - 17.01.2018 07:00:00 (CET)Kleine Brogel, Belgique (6479): visibility: 11.01.2018 07:00:00 - 17.01.2018 07:00:00 (CET)
Date & Time tt [°C] td [°C] ff [km/h] ff [knt] fx [km/h] fx [knt] dd ppp [hPa] vv [km]
17.01.2018 07:00:00 1,6 -0,3 29 16 - - WSW 997,5 20
17.01.2018 06:00:00 1,1 0,4 14 8 43 23 W 996,6 15
17.01.2018 05:00:00 0,6 0,2 13 7 40 21 W 995,7 10
17.01.2018 04:00:00 2,0 0,0 22 12 - - W 995,2 6
17.01.2018 03:00:00 3,5 1,0 26 14 50 27 WSW 993,9 10
17.01.2018 02:00:00 4,0 1,1 29 16 47 25 WSW 993,3 20
17.01.2018 01:00:00 3,9 1,1 25 14 - - SW 993,2 17
17.01.2018 00:00:00 3,7 1,8 24 13 43 23 WSW 993,9 10
16.01.2018 23:00:00 3,9 0,8 21 11 32 18 SW 994,3 10
16.01.2018 22:00:00 3,6 0,1 18 10 - - SW 994,6 10
16.01.2018 21:00:00 3,4 0,4 15 8 25 14 SW 995,1 10
16.01.2018 20:00:00 3,4 0,6 15 8 22 12 SW 995,6 10
16.01.2018 19:00:00 2,2 0,9 8 4 - - WSW 995,5 10
16.01.2018 18:00:00 3,3 1,6 11 6 61 33 W 995,9 9
16.01.2018 17:00:00 3,9 0,3 32 18 61 33 W 996,4 7
16.01.2018 16:00:00 5,3 0,5 22 12 - - W 995,4 15
16.01.2018 15:00:00 5,9 0,5 22 12 40 21 W 995,1 15
16.01.2018 14:00:00 5,6 2,5 14 8 32 18 WSW 995,2 15
16.01.2018 13:00:00 4,3 2,0 18 10 - - W 995,2 10
16.01.2018 12:00:00 4,0 1,4 22 12 47 25 W 995,0 6
16.01.2018 11:00:00 5,4 2,4 25 14 54 29 W 994,2 15
16.01.2018 10:00:00 6,8 3,7 32 18 - - WSW 993,0 15
16.01.2018 09:00:00 6,7 3,7 32 18 47 25 WSW 992,7 15
16.01.2018 08:00:00 6,8 3,7 29 16 47 25 WSW 992,4 15
16.01.2018 07:00:00 6,2 3,8 22 12 - - SW 992,4 15
16.01.2018 06:00:00 6,1 3,6 25 14 40 21 WSW 992,6 15
16.01.2018 05:00:00 6,0 3,6 22 12 36 19 SW 993,2 18
16.01.2018 04:00:00 6,0 4,1 25 14 - - SW 993,6 20
16.01.2018 03:00:00 5,6 4,0 18 10 36 19 SW 994,2 20
16.01.2018 02:00:00 5,4 3,7 25 14 43 23 WSW 994,7 20
16.01.2018 01:00:00 5,6 4,5 25 14 - - WSW 995,2 20
16.01.2018 00:00:00 5,8 4,5 22 12 32 18 WSW 994,5 20
15.01.2018 23:00:00 6,0 5,4 22 12 40 21 WSW 994,1 20
15.01.2018 22:00:00 7,0 6,5 18 10 - - SW 993,3 20
15.01.2018 21:00:00 5,9 5,6 21 11 43 23 SW 993,4 10
15.01.2018 20:00:00 5,5 4,5 25 14 50 27 SSW 993,5 14
15.01.2018 19:00:00 5,5 3,9 29 16 - - SSW 994,1 15
15.01.2018 18:00:00 5,3 3,8 25 14 54 29 SSW 995,6 10
15.01.2018 17:00:00 5,8 4,1 32 18 54 29 SSW 997,3 9
15.01.2018 16:00:00 5,9 4,2 18 10 - - SSW 998,8 12
15.01.2018 15:00:00 6,0 4,3 22 12 43 23 SSW 1001,0 7
15.01.2018 14:00:00 6,8 3,7 22 12 47 25 SSW 1002,7 15
15.01.2018 13:00:00 6,9 3,4 29 16 - - SSW 1004,8 18
15.01.2018 12:00:00 6,1 3,5 18 10 36 19 SSW 1007,6 15
15.01.2018 11:00:00 5,8 3,0 18 10 32 18 SSW 1009,1 15
15.01.2018 10:00:00 4,9 2,6 18 10 - - SSW 1010,2 15
15.01.2018 09:00:00 4,5 2,4 14 8 32 18 SSW 1011,2 13
15.01.2018 08:00:00 4,5 2,6 18 10 32 18 SSW 1012,2 11
15.01.2018 07:00:00 4,4 2,4 18 10 - - SSW 1012,7 12
15.01.2018 06:00:00 4,4 1,9 14 8 25 14 SSW 1013,7 12
15.01.2018 05:00:00 4,5 1,7 11 6 25 14 SSW 1014,6 12
15.01.2018 04:00:00 3,8 0,9 7 4 - - S 1015,2 12
15.01.2018 03:00:00 3,5 0,8 7 4 14 8 SSW 1016,2 13
15.01.2018 02:00:00 2,4 0,5 7 4 14 8 SSW 1016,8 11
15.01.2018 01:00:00 1,1 -0,5 4 2 - - N 1017,7 10
15.01.2018 00:00:00 -0,1 -0,9 4 2 7 4 N 1018,7 7
14.01.2018 23:00:00 0,2 -0,2 4 2 7 4 N 1019,1 6
14.01.2018 22:00:00 -1,0 -1,5 4 2 - - N 1019,3 4,2
14.01.2018 21:00:00 0,5 -0,3 4 2 7 4 N 1019,2 6
14.01.2018 20:00:00 0,6 -0,4 4 2 11 6 N 1019,3 7
14.01.2018 19:00:00 1,7 0,1 4 2 - - N 1019,6 8
14.01.2018 18:00:00 2,0 0,3 7 4 14 8 E 1019,5 9
14.01.2018 17:00:00 3,2 0,7 8 4 11 6 E 1019,6 10
14.01.2018 16:00:00 5,0 1,1 4 2 - - N 1019,6 14
14.01.2018 15:00:00 5,5 1,2 11 6 18 10 E 1019,3 14
14.01.2018 14:00:00 5,5 1,2 7 4 18 10 ESE 1019,7 10
14.01.2018 13:00:00 5,2 0,9 7 4 - - ESE 1020,5 19
14.01.2018 12:00:00 4,5 0,5 7 4 22 12 ESE 1020,7 18
14.01.2018 11:00:00 3,4 0,4 7 4 18 10 E 1021,0 12
14.01.2018 10:00:00 2,0 -0,1 8 4 - - E 1020,7 10
14.01.2018 09:00:00 0,6 -0,8 7 4 14 8 ENE 1020,7 9
14.01.2018 08:00:00 1,2 -0,5 7 4 14 8 E 1020,5 11
14.01.2018 07:00:00 1,7 -0,4 11 6 - - E 1020,5 11
14.01.2018 06:00:00 2,6 -0,2 7 4 18 10 E 1020,2 13
14.01.2018 05:00:00 3,2 0,1 11 6 22 12 E 1020,5 13
14.01.2018 04:00:00 3,5 0,2 7 4 - - E 1020,6 12
14.01.2018 03:00:00 4,5 0,6 11 6 18 10 E 1020,8 13
14.01.2018 02:00:00 4,1 1,0 7 4 11 6 ENE 1021,0 14
14.01.2018 01:00:00 4,0 1,0 7 4 - - ENE 1021,3 11
14.01.2018 00:00:00 3,7 1,0 11 6 14 8 ENE 1021,7 11
13.01.2018 23:00:00 4,1 0,6 7 4 14 8 ENE 1021,8 15
13.01.2018 22:00:00 4,0 0,2 7 4 - - E 1022,2 14
13.01.2018 21:00:00 3,5 0,0 7 4 14 8 E 1022,6 13
13.01.2018 20:00:00 2,5 0,0 7 4 11 6 E 1022,8 12
13.01.2018 19:00:00 3,2 0,0 4 2 - - N 1023,0 16
13.01.2018 18:00:00 3,4 0,1 7 4 18 10 ESE 1023,2 18
13.01.2018 17:00:00 4,3 0,5 7 4 22 12 ESE 1023,1 16
13.01.2018 16:00:00 5,1 1,6 11 6 - - E 1023,2 14
13.01.2018 15:00:00 5,5 2,5 11 6 25 14 E 1023,2 12
13.01.2018 14:00:00 6,5 2,4 11 6 18 10 E 1024,0 18
13.01.2018 13:00:00 6,3 3,4 4 2 - - N 1024,5 10
13.01.2018 12:00:00 5,6 4,4 4 2 14 8 N 1025,2 6
13.01.2018 11:00:00 4,5 4,4 7 4 11 6 E 1025,4 2,5
13.01.2018 10:00:00 3,9 3,9 7 4 - - ENE 1025,4 0,4
13.01.2018 09:00:00 3,5 3,5 7 4 11 6 E 1025,2 0,2
13.01.2018 08:00:00 3,7 3,7 7 4 11 6 E 1025,0 0,2
13.01.2018 07:00:00 3,7 3,7 7 4 - - E 1025,2 0,2
13.01.2018 06:00:00 3,8 3,8 4 2 7 4 N 1025,5 0,3
13.01.2018 05:00:00 4,1 3,9 4 2 11 6 N 1025,9 1,6
13.01.2018 04:00:00 4,7 4,0 4 2 - - N 1026,2 2,6
13.01.2018 03:00:00 4,6 3,9 4 2 7 4 N 1026,5 2,6
13.01.2018 02:00:00 4,3 3,9 4 2 11 6 N 1026,7 1,9
13.01.2018 01:00:00 4,0 3,9 7 4 - - E 1027,0 1,3
13.01.2018 00:00:00 4,1 4,0 4 2 11 6 N 1027,2 1,2
12.01.2018 23:00:00 4,7 4,3 4 2 7 4 N 1027,4 2,1
12.01.2018 22:00:00 4,6 4,4 4 2 - - N 1027,5 1,6
12.01.2018 21:00:00 5,0 4,6 4 2 7 4 N 1027,4 1,7
12.01.2018 20:00:00 5,3 4,9 4 2 7 4 N 1027,2 2,1
12.01.2018 19:00:00 5,4 4,9 4 2 - - N 1027,0 1,8
12.01.2018 18:00:00 5,5 4,9 4 2 4 2 - 1027,0 2,4
12.01.2018 17:00:00 5,6 4,9 4 2 4 2 N 1027,0 2,7
12.01.2018 16:00:00 - - - - - - - - -
12.01.2018 15:00:00 5,6 4,9 4 2 7 4 N 1026,7 2,5
12.01.2018 14:00:00 5,6 5,1 4 2 7 4 N 1026,5 2,0
12.01.2018 13:00:00 5,6 5,0 4 2 - - N 1026,9 2,0
12.01.2018 12:00:00 5,5 4,9 4 2 11 6 N 1027,2 2,0
12.01.2018 11:00:00 5,2 4,7 4 2 11 6 N 1027,4 2,0
12.01.2018 10:00:00 5,0 4,8 4 2 - - N 1026,9 1,5
12.01.2018 09:00:00 4,9 4,8 4 2 4 2 N 1026,4 1,5
12.01.2018 08:00:00 4,6 4,5 4 2 4 2 N 1026,2 2,5
12.01.2018 07:00:00 4,8 4,5 4 2 - - N 1025,5 3,0
12.01.2018 06:00:00 5,0 4,9 4 2 4 2 N 1025,5 3,0
12.01.2018 05:00:00 5,0 4,9 4 2 7 4 N 1025,4 2,1
12.01.2018 04:00:00 5,0 4,8 4 2 - - N 1025,2 2,0
12.01.2018 03:00:00 5,3 5,1 4 2 7 4 N 1025,0 2,1
12.01.2018 02:00:00 5,5 5,3 4 2 7 4 N 1024,5 2,4
12.01.2018 01:00:00 5,5 5,5 4 2 - - N 1024,2 1,9
12.01.2018 00:00:00 5,6 5,6 7 4 11 6 NNE 1023,8 1,6
11.01.2018 23:00:00 5,4 5,4 4 2 11 6 N 1023,6 1,5
11.01.2018 22:00:00 4,5 4,3 4 2 - - N 1022,8 0,4
11.01.2018 21:00:00 4,8 4,5 4 2 7 4 N 1022,5 0,6
11.01.2018 20:00:00 5,4 5,1 5 3 7 4 N 1021,7 2,1
11.01.2018 19:00:00 6,1 5,6 4 2 - - N 1021,1 2,0
11.01.2018 18:00:00 7,0 6,2 4 2 11 6 N 1020,7 4,3
11.01.2018 17:00:00 7,3 6,4 4 2 14 8 N 1020,0 10
11.01.2018 16:00:00 7,9 6,4 4 2 - - - 1019,1 10
11.01.2018 15:00:00 8,1 6,7 7 4 11 6 NNE 1018,3 12
11.01.2018 14:00:00 7,8 6,7 4 2 7 4 N 1017,7 12
11.01.2018 13:00:00 7,1 6,3 4 2 - - N 1017,3 12
11.01.2018 12:00:00 6,9 6,2 4 2 4 2 N 1017,2 7
11.01.2018 11:00:00 6,2 6,1 4 2 4 2 N 1016,8 4,5
11.01.2018 10:00:00 5,1 5,1 4 2 - - N 1016,1 3,0
11.01.2018 09:00:00 4,5 4,5 4 2 4 2 N 1015,2 2,2
11.01.2018 08:00:00 3,8 3,8 4 2 4 2 N 1014,5 1,4
11.01.2018 07:00:00 4,3 4,2 4 2 - - N 1013,6 1,5

tt = Température de l'air
td = dewpoint
ff = Vitesse du vent
fx = gusts
dd = Direction du vent
ppp = reduced air pressure
vv = visibility

stations d'obs. à proximité